Location: Middle Street
(51.7167°N, 0.0333°E)
Time: 02:06:56
(UTC+00:00)

SKYMED 2 - Pass Details

Date: 20 January 2021
Orbit: 621 x 623 km, 97.9° (Epoch: 28 February)

Event Time Altitude Azimuth Distance (km) Brightness Sun altitude
Exits shadow 18:45:25 - 8° (N) 2,294 6.3 -20.8°
Reaches altitude 10° 18:46:08 10° 6° (N) 2,007 6.0 -20.9°
Maximum altitude 18:50:23 54° 290° (WNW) 764 4.3 -21.5°
Drops below altitude 10° 18:54:36 10° 213° (SSW) 1,990 6.6 -22.2°
Sets 18:56:49 0° 209° (SSW) 2,892 7.5 -22.5°
